www.pogodaiklimat.ru

Погода и климат >> Архив погоды >> Буркина-Фасо >> Dedougou


ПОГОДА в Dedougou

  • Прогноз погоды в Dedougou
  • Монитор погоды в Dedougou
  • Климат города

АРХИВ ПОГОДЫ в Dedougou

Время (UTC), дата Ветер
(напр.,м/с)
 
Видим.   Явления Облачность Т
(С)
Тd
(С)
f
(%)
Тe
(С)
Тes
(С)
Комфортность P
(гПа)
Po
(гПа)
Тmin
(С)
Tmax
(С)
R
(мм)
R24
(мм)
S
(см)
18 16.10 СВ 1 15 км 9/0
[Ci sp]
+34.0 +16.2 35 +37 +37 очень
душно
1011.4 978.0 +39.0
21 16.10 В 1 10 км 9/0
[Ci sp]
+29.0 +14.4 41 +31 +31 жарко 1013.0 979.6
00 17.10 ЮВ 1 10 км 9/0
[Ci sp]
+27.1 +13.7 44 +29 +29 жарко 1013.0 980.0
03 17.10 штиль 0 10 км 9/0
[Ci sp]
+23.5 +18.0 71 +28 +28 душно 1012.1 979.0
06 17.10 штиль 0 15 км 9/0
[Ac trans Ci sp]
+22.9 +17.5 72 +28 +28 душно 1013.1 979.7 +22.1
09 17.10 В 1 15 км 9/0
[Ci sp]
+30.6 +15.4 40 +33 +41 душно 1014.3 981.0
12 17.10 Ю 3 15 км 9/0
[Ci sp]
+36.8 +10.5 20 +36 +48 очень
жарко
1012.3 979.3
15 17.10 В 3 15 км 9/0
[Ci sp]
+38.3 +6.5 14 +36 +42 очень
жарко
1010.2 977.1
18 17.10 В 1 15 км 9/0
[Ci sp]
+33.5 +15.5 34 +36 +36 очень
душно
1011.0 977.6 +39.3
21 17.10 ЮЗ 2 10 км 9/0
[Ci sp]
+29.0 +13.6 39 +31 +31 жарко 1013.0 979.7
00 18.10 ЮЗ 2 10 км 9/0
[Ci sp]
+27.6 +11.8 37 +34 +34 очень
душно
1012.6 979.6
03 18.10 Ю 2 10 км 9/0
[Ci sp]
+25.4 +11.9 43 +27 +27 жарко 1011.1 978.1
06 18.10 ЮЗ 1 15 км 9/0
[Ci sp]
+22.2 +15.7 67 +26 +26 душно 1012.0 978.5 +21.9
09 18.10 ЮЗ 1 15 км 9/0
[Ci sp]
+30.0 +13.7 37 +32 +39 жарко 1013.6 980.2
12 18.10 ЮВ 3 15 км 9/0
[Ci sp]
+36.6 +7.8 17 +35 +47 очень
жарко
1011.6 978.6
15 18.10 В 3 15 км 9/0
[Ci sp]
+38.5 +5.6 13 +36 +42 очень
жарко
1009.2 976.3
18 18.10 ЮВ 2 15 км 9/0
[Ci sp]
+33.7 +14.0 31 +35 +35 очень
жарко
1009.9 976.5 +39.5
21 18.10 ЮВ 2 10 км 9/0
[Ci sp]
+28.5 +12.0 36 +30 +30 жарко 1011.8 978.5
00 19.10 ЮВ 2 10 км 9/0
[Ci sp]
+26.0 +13.7 47 +28 +28 жарко 1011.6 978.5
03 19.10 ЮЗ 1 10 км 9/0
[Ci sp]
+23.0 +15.7 63 +27 +27 душно 1010.9 977.8
06 19.10 ЮЗ 1 15 км 9/0
[Ci sp]
+21.8 +14.7 64 +25 +25 комфорт 1011.9 978.5 +21.8
09 19.10 Ю 1 15 км 9/0
[Ci sp]
+29.5 +15.1 42 +32 +39 душно 1013.3 979.9
12 19.10 СЗ 1 15 км 9/0
[Ci sp]
+35.5 +14.0 28 +36 +54 опасность
солнечного
удара
1012.1 979.0
15 19.10 СВ 3 15 км 8/1 600 м
[Sc Ci sp]
+37.8 +8.0 16 +36 +42 очень
жарко
1009.6 976.5
18 19.10 В 1 15 км 9/0
[Ci sp]
+34.5 +15.0 31 +36 +36 душно 1010.1 976.7 +39.0
21 19.10 В 1 10 км 9/0
[Ci sp]
+29.5 +11.8 34 +30 +30 жарко 1011.8 978.5
00 20.10 З 1 10 км 9/0
[Ci sp]
+25.5 +14.9 52 +28 +28 жарко 1011.4 978.2
03 20.10 штиль 0 10 км 9/0
[Ci sp]
+22.5 +14.3 60 +26 +26 жарко 1009.8 976.7
15 20.10 В 3 15 км 9/0
[Ci sp]
+38.5 +5.2 13 +36 +42 очень
жарко
1009.2 976.1
18 20.10 В 1 15 км 9/0
[Ci sp]
+34.8 +14.5 30 +36 +36 душно 1009.7 976.4 +39.5
21 20.10 В 2 10 км 9/0
[Ci sp]
+29.5 +10.6 31 +30 +30 жарко 1012.3 979.0
00 21.10 В 2 10 км 9/0
[Ci sp]
+27.5 +10.0 33 +28 +28 жарко 1011.7 978.7
03 21.10 штиль 0 10 км 9/0
[Ci sp]
+23.5 +15.3 60 +26 +26 жарко 1011.0 977.9
06 21.10 Ю 1 10 км 9/0
[Ci sp]
+22.0 +12.5 55 +25 +25 комфорт 1011.6 978.2 +21.9
09 21.10 ЮЗ 2 15 км 6/0
[Ci sp]
+31.5 +14.7 36 +33 +40 жарко 1013.0 979.8
15 21.10 В 3 15 км 6/0
[Ci sp]
+38.0 +7.5 16 +36 +43 очень
жарко
1009.0 976.0
21 21.10 ЮВ 1 10 км 9/0
[Ci sp]
+28.7 +12.7 37 +30 +30 жарко 1011.9 978.7
00 22.10 ЮЗ 3 10 км 9/0
[Ci sp]
+24.8 +16.0 58 +28 +28 жарко 1011.9 978.7
03 22.10 ЮЗ 2 10 км 9/0
[Ci sp]
+23.0 +13.8 56 +26 +26 жарко 1010.4 977.3
06 22.10 Ю 1 15 км 9/0
[Ci sp]
+21.7 +13.8 61 +25 +25 комфорт 1011.5 978.0 +21.7
09 22.10 ЮЗ 3 15 км 6/0
[Ci sp]
+31.5 +14.7 36 +33 +39 жарко 1012.3 979.1
12 22.10 З 1 15 км 4/0
[Ci sp]
+36.2 +15.8 30 +38 +58 опасность
солнечного
удара
1011.0 977.9
15 22.10 СВ 3 15 км 4/0
[Ci sp]
+39.0 +15.4 25 +37 +44 очень
жарко
1008.5 975.5
18 22.10 СВ 1 15 км 6/0
[Ci sp]
+35.0 +13.9 28 +36 +36 очень
жарко
1008.8 975.5 +39.6
21 22.10 В 1 10 км 6/0
[Ci sp]
+29.4 +11.7 34 +30 +30 жарко 1010.5 977.4
00 23.10 штиль 0 10 км 6/0
[Ci sp]
+25.5 +14.9 52 +28 +28 жарко 1010.2 977.1
03 23.10 Ю 2 10 км 6/0
[Ci sp]
+25.5 +13.9 49 +28 +28 жарко 1009.0 976.1
06 23.10 ЮЗ 1 15 км 8/0
[Ac trans Ci sp]
+23.8 +19.2 75 +29 +29 душно 1009.9 976.7 +23.5
09 23.10 ЮЗ 4 15 км 9/0
[Ci sp]
+30.7 +20.5 55 +38 +42 очень
душно
1011.7 978.4
12 23.10 СЗ 1 15 км 9/0
[Ci sp]
+36.0 +18.0 35 +40 +57 опасность
солнечного
удара
1011.2 978.1
15 23.10 В 1 15 км 9/1 600 м
[Sc Ci sp]
+37.5 +13.7 24 +38 +46 очень
жарко
1007.6 974.7

 

Местоположение метеостанции Dedougou (Буркина-Фасо): широта 12.47 долгота -3.48 высота над уровнем моря 300 м.

В архиве по умолчанию представлена погода в Dedougou за последнюю неделю. Архивные данные за месяц целиком и за предыдущие месяцы, начиная с января 2011 года, Вы можете получить, выбрав интересующий диапазон дат из раскрывающегося списка и нажав кнопку "Ввод!".

Внимание! Время в таблицах - всемирное. Для получения местного времени необходимо прибавить поправку, которая в Dedougou равна 0 ч.

Смотрите также архив погоды в соседних городах и на ближайших метеорологических станциях:

Погода в Boromo (Буркина-Фасо) (100 км)
Погода в Ouahigouya (Буркина-Фасо) (168 км)
Погода в Bobo-Dioulasso (Буркина-Фасо) (171 км)
Погода в San (Мали) (175 км)
Погода в Ouagadougou (Буркина-Фасо) (213 км)
Погода в Koutiala (Мали) (216 км)
Погода в Mopti (Мали) (238 км)
Погода в Gaoua (Буркина-Фасо) (240 км)
Погода в Sikasso (Мали) (270 км)
Погода в Wa (Гана) (290 км)

Пояснения к столбцам:

Ветер - указаны скорость ветра в м/с - средняя за 10 мин, порывы в срок и между сроками (в фигурных скобках) и направление, откуда дует ветер: С - северный, СВ - северо-восточный, В - восточный, ЮВ - юго-восточный, Ю - южный, ЮЗ - юго-западный, З - западный, СЗ - северо-западный.
Видимость - горизонтальная дальность видимости в метрах или километрах. При видимости от 1 до 10 км при отсутствии осадков обычно наблюдается дымка, при ухудшении видимости до 1 км и менее - туман. В сухую погоду видимость может ухудшаться дымом, пылью или мглою.
Явления - указаны атмосферные явления, наблюдавшиеся в срок или в последний час перед сроком; фигурными скобками обозначены явления, наблюдавшиеся между сроками (за 1-3 часа до срока); квадратными скобками обозначены град или гололедные отложения с указанием их диаметра в мм.
Облачность - указаны через наклонную черту общая и нижняя облачность в баллах и высота нижней границы облаков в метрах; квадратными скобками обозначены формы облаков: Ci - перистые, Cs - перисто-слоистые, Cc - перисто-кучевые, Ac - высококучевые, As - высокослоистые, Sc - слоисто-кучевые, Ns - слоисто-дождевые, Cu - кучевые, Cb - кучево-дождевые. Подробнее классификацию облаков см. в Атласе облаков (PDF).
T - Температура воздуха - температура, измеренная на высоте 2 м над землей.
Td - Температура точки росы - температура, при понижении до которой содержащийся в воздухе водяной пар достигнет насыщения.
f - Относительная влажность воздуха - влажноcть воздуха, измеренная на высоте 2 м над землей.
Te - Эффективная температура - температура, которую ощущает одетый по сезону человек в тени. Характеристика душности погоды. При расчете учитывается влияние влажности воздуха и скорости ветра на теплоощущения человека.
Tes - Эффективная температура на солнце - температура, которую ощущает человек, с поправкой на солнечный нагрев. Характеристика знойности погоды. Зависит от высоты солнца над горизонтом, облачности и скорости ветра. Ночью, в пасмурную погоду, а также при ветре 12 м/с и более поправка равна нулю.
P - Атмосферное давление - приведенное к уровню моря атмосферное давление.
Po - Атмосферное давление - измеренное на уровне метеостанции атмосферное давление.
Tmin - Минимальная температура - минимум температуры воздуха на высоте 2 м над землей.
Tmax - Максимальная температура - максимум температуры воздуха на высоте 2 м над землей.
R - Количество осадков - Количество выпавших осадков за период времени, мм. При наведении курсора мыши на число - период времени, за который выпало указанное количество осадков.
R24 - Количество осадков - Количество выпавших осадков за 24 часа, мм.
S - Снежный покров - Высота снежного покрова, см. При наведении курсора мыши на число - состояние снежного покрова и степень покрытия местности в баллах.